{"data":{"norad_id":63234,"intl_designator":"2025-052AA","name":"TOMORROW-S5","alt_names":[],"object_type":"PAYLOAD","status":"ACTIVE","operator":null,"country":"US","launch_date":"2025-03-15","launch_site_code":"AFWTR","launch_vehicle":null,"mission":null,"orbit_class":"UNKNOWN","rcs_meters":null,"size_class":null,"mass_kg":null,"dimensions":null,"purposes":[],"wikipedia_slug":null,"has_3d_model":false,"image_url":null,"decayed_at":null,"tle_current":{"epoch":"2026-09-22T15:39:26.981568Z","epoch_age_seconds":122916,"freshness":"FRESH","line1":"1 63234U 25052AA  26265.65239562  .00003104  00000+0  13426-3 0  9997","line2":"2 63234  97.3843 156.7933 0007126 155.4746 204.6831 15.23167831 84672","mean_motion":15.23167831,"eccentricity":0.0007126,"inclination_deg":97.3843,"raan_deg":156.7933,"arg_perigee_deg":155.4746,"mean_anomaly_deg":204.6831,"bstar":0.00013426,"rev_number":8467,"period_min":94.539811745801,"perigee_km":491.39388032426,"apogee_km":501.19131738855,"semimajor_km":6874.4295988564,"source":"CELESTRAK","updated_at":"2026-09-23T09:00:21.904275Z"}}}